"datetime","# probes","# resolvers","can_ipv6","can_ipv6_prbs","can_tcp","can_tcp_prbs","can_tcp6","can_tcp6_prbs","does_ecs","does_ecs_prbs","does_flagday","does_flagday_prbs","does_rov4","does_rov4_prbs","does_rov6","does_rov6_prbs","does_qnamemin","doesnt_qnamemin","does_qnamemin_prbs","doesnt_qnamemin_prbs","does_nxdomain","doesnt_nxdomain","does_nxdomain_prbs","doesnt_nxdomain_prbs","has_ta_19036","hasnt_ta_19036","has_ta_19036_prbs","hasnt_ta_19036_prbs","has_ta_20326","hasnt_ta_20326","has_ta_20326_prbs","hasnt_ta_20326_prbs","can_rsamd5","cannot_rsamd5","broken_rsamd5","can_rsamd5_prbs","cannot_rsamd5_prbs","broken_rsamd5_prbs","can_dsa","cannot_dsa","broken_dsa","can_dsa_prbs","cannot_dsa_prbs","broken_dsa_prbs","can_rsasha1","cannot_rsasha1","broken_rsasha1","can_rsasha1_prbs","cannot_rsasha1_prbs","broken_rsasha1_prbs","can_dsansec3","cannot_dsansec3","broken_dsansec3","can_dsansec3_prbs","cannot_dsansec3_prbs","broken_dsansec3_prbs","can_rsansec3","cannot_rsansec3","broken_rsansec3","can_rsansec3_prbs","cannot_rsansec3_prbs","broken_rsansec3_prbs","can_rsasha256","cannot_rsasha256","broken_rsasha256","can_rsasha256_prbs","cannot_rsasha256_prbs","broken_rsasha256_prbs","can_rsasha512","cannot_rsasha512","broken_rsasha512","can_rsasha512_prbs","cannot_rsasha512_prbs","broken_rsasha512_prbs","can_eccgost","cannot_eccgost","broken_eccgost","can_eccgost_prbs","cannot_eccgost_prbs","broken_eccgost_prbs","can_ecdsa256","cannot_ecdsa256","broken_ecdsa256","can_ecdsa256_prbs","cannot_ecdsa256_prbs","broken_ecdsa256_prbs","can_ecdsa384","cannot_ecdsa384","broken_ecdsa384","can_ecdsa384_prbs","cannot_ecdsa384_prbs","broken_ecdsa384_prbs","can_ed25519","cannot_ed25519","broken_ed25519","can_ed25519_prbs","cannot_ed25519_prbs","broken_ed25519_prbs","can_ed448","cannot_ed448","broken_ed448","can_ed448_prbs","cannot_ed448_prbs","broken_ed448_prbs","can_gost","cannot_gost","broken_gost","can_gost_prbs","cannot_gost_prbs","broken_gost_prbs","can_sha384","cannot_sha384","broken_sha384","can_sha384_prbs","cannot_sha384_prbs","broken_sha384_prbs","is_internal","is_forwarding","is_external","is_internal_prbs","is_forwarding_prbs","is_external_prbs"
2017-06-20T23:59:59Z,151,216,197,136,216,151,194,134,85,67,0,0,0,0,0,0,2,213,1,149,0,214,0,150,0,0,0,0,0,0,0,0,87,42,87,60,47,67,128,88,0,87,71,1,214,2,0,150,19,1,127,89,0,86,72,1,214,2,0,150,19,1,214,2,0,150,19,1,213,2,0,149,19,1,84,130,2,57,97,2,216,0,0,151,18,1,216,0,0,151,18,1,0,214,2,0,150,2,0,213,3,0,150,3,172,42,2,124,46,2,215,0,0,150,18,1,106,42,68,84,35,49
2017-06-21T23:59:59Z,154,218,198,138,216,154,193,134,90,70,0,0,0,0,0,0,2,216,1,153,0,216,0,153,0,0,0,0,0,0,0,0,85,44,89,59,50,69,129,89,0,88,73,1,217,1,0,153,20,1,129,89,0,88,73,1,217,1,0,153,20,1,217,1,0,153,20,1,217,1,0,153,20,1,83,133,2,57,100,2,218,0,0,154,19,1,218,0,0,154,19,1,0,216,2,0,153,2,0,216,2,0,153,2,173,43,2,126,48,2,217,0,1,153,19,2,106,44,68,86,38,49
2017-06-22T23:59:59Z,155,220,200,139,220,155,196,136,90,70,0,0,0,0,0,0,2,218,1,154,0,218,0,154,0,0,0,0,0,0,0,0,88,43,89,60,50,71,131,89,0,89,74,2,219,1,0,154,20,2,131,89,0,89,74,2,219,1,0,154,20,2,219,1,0,154,20,2,219,1,0,154,20,2,86,132,2,58,101,3,220,0,0,155,19,2,220,0,0,155,19,2,0,218,2,0,154,3,0,218,2,0,154,3,175,43,2,126,49,3,219,0,1,154,19,2,108,44,68,87,39,49
2017-06-23T23:59:59Z,152,217,197,136,217,152,194,134,90,70,0,0,0,0,0,0,2,215,1,151,0,215,1,151,0,0,0,0,0,0,0,0,87,43,87,60,49,67,131,86,0,89,71,0,217,0,0,152,19,0,130,87,0,88,71,1,217,0,0,152,19,1,217,0,0,152,19,1,217,0,0,152,19,1,84,131,2,57,98,2,217,0,0,152,19,1,217,0,0,152,19,1,0,215,2,0,151,2,0,215,2,0,151,2,172,43,2,124,48,2,217,0,0,152,19,1,105,44,68,85,37,48
2017-06-24T23:59:59Z,151,215,196,136,212,150,192,134,87,69,0,0,0,0,0,0,3,212,2,150,0,213,0,150,0,0,0,0,0,0,0,0,84,43,88,58,49,67,128,87,0,87,71,0,215,0,0,151,19,0,128,87,0,87,71,0,215,0,0,151,19,0,215,0,0,151,19,0,215,0,0,151,19,0,81,132,2,55,99,1,215,0,0,151,19,0,215,0,0,151,19,0,0,213,2,0,150,1,0,213,2,0,150,1,170,43,2,123,48,1,215,0,0,151,19,0,103,45,67,83,39,47
2017-06-25T23:59:59Z,151,216,197,136,216,151,194,134,88,68,0,0,0,0,0,0,2,214,1,150,0,214,0,150,0,0,0,0,0,0,0,0,85,43,88,59,49,66,129,87,0,88,70,0,216,0,0,151,19,0,128,88,0,87,72,0,216,0,0,151,19,0,216,0,0,151,19,0,216,0,0,151,19,0,82,132,2,56,99,1,216,0,0,151,19,0,216,0,0,151,19,0,0,214,2,0,150,1,0,214,2,0,150,1,171,43,2,123,48,1,216,0,0,151,19,0,104,45,67,84,37,47
2017-06-26T23:59:59Z,152,218,199,137,218,152,195,134,94,73,0,0,0,0,0,0,2,216,1,151,0,218,0,152,0,0,0,0,0,0,0,0,85,44,89,58,50,67,129,89,0,87,72,0,217,1,0,151,20,0,130,88,0,88,71,0,217,0,1,152,19,1,217,0,1,152,19,1,217,0,1,152,19,1,83,132,3,57,98,2,217,0,1,152,19,1,218,0,0,152,19,0,0,216,2,0,151,1,0,216,2,0,151,1,172,43,3,124,48,2,217,0,1,152,18,2,104,47,67,83,40,47
2017-06-27T23:59:59Z,151,215,196,136,215,151,193,134,92,71,0,0,0,0,0,0,2,213,1,150,0,213,0,150,0,0,0,0,0,0,0,0,86,43,86,60,49,66,130,85,0,89,69,1,215,0,0,151,19,1,129,86,0,88,70,1,215,0,0,151,19,1,215,0,0,151,19,1,215,0,0,151,19,1,83,130,2,57,97,2,215,0,0,151,19,1,215,0,0,151,19,1,0,213,2,0,150,2,0,213,2,0,150,2,170,43,2,123,48,2,215,0,0,151,19,1,104,46,65,84,38,47
2017-06-28T23:59:59Z,150,214,196,136,214,150,191,133,90,69,0,0,0,0,0,0,3,211,2,149,0,212,0,149,0,0,0,0,0,0,0,0,85,43,86,59,49,66,128,86,0,87,70,1,213,1,0,149,20,1,126,86,2,86,70,2,213,1,0,149,20,1,213,1,0,149,20,1,213,1,0,149,20,1,83,129,2,57,96,2,214,0,0,150,19,1,214,0,0,150,19,1,0,212,2,0,149,2,0,212,2,0,149,2,169,42,3,123,47,3,213,0,1,150,19,2,104,45,65,84,37,47
2017-06-29T23:59:59Z,149,213,194,134,213,149,190,132,87,67,0,0,0,0,0,0,3,210,2,148,0,213,0,149,0,0,0,0,0,0,0,0,84,41,88,59,48,66,126,86,1,87,69,1,212,0,1,149,19,1,125,87,1,86,70,1,213,0,0,149,19,0,211,2,0,149,20,0,213,0,0,149,19,0,82,129,2,56,96,1,212,1,0,149,19,0,213,0,0,149,19,0,0,211,2,0,148,1,0,211,2,0,148,1,170,41,2,122,47,1,212,1,0,149,19,0,102,46,65,83,38,46
2017-06-30T23:59:59Z,152,216,196,136,216,152,193,134,85,67,0,0,0,0,0,0,3,213,2,150,0,214,0,151,0,0,0,0,0,0,0,0,85,42,89,58,49,68,128,88,0,87,72,0,215,1,0,151,20,0,128,88,0,87,72,0,216,0,0,152,19,0,215,1,0,152,20,0,216,0,0,152,19,0,82,131,3,56,98,2,216,0,0,152,19,0,216,0,0,152,19,0,0,213,3,0,150,2,0,213,3,0,150,2,170,43,3,123,48,2,216,0,0,152,19,0,104,46,66,85,39,46
2017-07-01T23:59:59Z,149,214,195,134,213,148,191,131,89,67,0,0,0,0,0,0,2,212,1,148,0,214,0,149,0,0,0,0,0,0,0,0,86,42,86,60,49,64,128,86,0,88,69,0,213,1,0,148,20,0,126,88,0,86,70,0,213,1,0,148,20,0,213,1,0,148,20,0,213,1,0,148,20,0,79,133,2,55,97,1,214,0,0,149,19,0,214,0,0,149,19,0,0,212,2,0,148,1,0,212,2,0,148,1,168,44,2,121,48,1,213,1,0,148,20,0,101,45,68,83,37,47
2017-07-02T23:59:59Z,150,216,197,135,216,150,194,133,89,68,0,0,0,0,0,0,3,213,2,149,0,216,0,150,0,0,0,0,0,0,0,0,87,42,87,60,48,64,129,87,0,88,69,0,215,1,0,149,19,0,129,87,0,88,70,0,216,0,0,150,18,0,215,1,0,149,19,0,215,1,0,149,19,0,83,131,2,57,97,1,216,0,0,150,18,0,216,0,0,150,18,0,0,214,2,0,149,1,0,214,2,0,149,1,171,43,2,122,47,1,216,0,0,150,18,0,104,45,67,83,37,47
2017-07-03T23:59:59Z,153,222,200,136,221,152,196,133,94,71,0,0,0,0,0,0,6,216,4,150,0,220,0,152,0,0,0,0,0,0,0,0,89,41,92,60,47,68,134,88,0,90,70,0,222,0,0,153,18,0,135,87,0,91,69,0,222,0,0,153,18,0,221,1,0,153,19,0,222,0,0,153,18,0,86,131,5,58,96,3,222,0,0,153,18,0,222,0,0,153,18,0,0,217,5,0,150,3,0,217,5,0,150,3,174,43,5,123,47,3,222,0,0,153,18,0,109,46,67,85,39,47
2017-07-04T23:59:59Z,152,220,199,136,220,152,195,134,87,67,0,0,0,0,0,0,4,216,3,150,0,220,0,152,0,0,0,0,0,0,0,0,89,41,90,60,47,67,132,88,0,89,70,1,220,0,0,152,18,1,132,88,0,89,70,1,220,0,0,152,18,1,220,0,0,152,18,1,220,0,0,152,18,1,85,132,3,57,97,3,220,0,0,152,18,1,220,0,0,152,18,1,0,217,3,0,150,3,0,217,3,0,150,3,174,43,3,123,47,3,220,0,0,152,18,1,108,45,67,86,37,47
2017-07-05T23:59:59Z,150,218,198,135,218,150,195,133,87,67,0,0,0,0,0,0,2,216,1,149,0,218,0,150,0,0,0,0,0,0,0,0,87,44,87,59,49,65,132,86,0,89,69,0,218,0,0,150,18,0,132,86,0,89,69,0,218,0,0,150,18,0,217,1,0,150,19,0,218,0,0,150,18,0,84,132,2,56,97,1,218,0,0,150,18,0,218,0,0,150,18,0,0,216,2,0,149,1,0,216,2,0,149,1,171,45,2,121,49,1,218,0,0,150,18,0,108,45,65,85,37,46
2017-07-06T23:59:59Z,150,216,194,134,216,150,188,130,88,68,0,0,0,0,0,0,4,212,2,148,0,212,0,148,0,0,0,0,0,0,0,0,84,44,88,59,49,66,130,85,1,89,68,1,215,0,1,150,18,1,130,85,1,89,68,1,216,0,0,150,18,0,216,0,0,150,18,0,216,0,0,150,18,0,82,130,4,56,96,2,216,0,0,150,18,0,216,0,0,150,18,0,0,212,4,0,148,2,0,212,4,0,148,2,166,45,5,120,49,3,216,0,0,150,18,0,107,44,65,85,37,46
2017-07-07T23:59:59Z,151,217,195,135,217,151,192,133,87,68,0,0,0,0,0,0,5,212,3,149,0,215,0,150,0,0,0,0,0,0,0,0,86,44,87,60,50,65,132,85,0,90,68,0,217,0,0,151,19,0,130,87,0,88,70,0,217,0,0,151,19,0,217,0,0,151,19,0,217,0,0,151,19,0,81,132,4,55,98,2,217,0,0,151,19,0,217,0,0,151,19,0,0,213,4,0,149,2,0,213,4,0,149,2,168,45,4,121,50,2,217,0,0,151,19,0,108,44,65,87,36,46
2017-07-08T23:59:59Z,150,218,195,134,218,150,192,132,90,68,0,0,0,0,0,0,4,214,2,148,0,218,0,150,0,0,0,0,0,0,0,0,87,43,88,60,49,66,130,88,0,89,69,0,218,0,0,150,18,0,130,88,0,89,70,0,218,0,0,150,18,0,218,0,0,150,18,0,218,0,0,150,18,0,82,132,4,56,97,2,218,0,0,150,18,0,218,0,0,150,18,0,0,214,4,0,148,2,0,214,4,0,148,2,170,44,4,121,49,2,218,0,0,150,18,0,108,44,66,85,36,47
2017-07-09T23:59:59Z,152,223,202,137,223,152,199,135,89,68,0,0,0,0,0,0,3,220,2,151,0,221,0,151,0,0,0,0,0,0,0,0,90,44,89,61,50,66,132,91,0,89,71,0,222,1,0,151,19,0,131,92,0,88,72,0,223,0,0,152,18,0,223,0,0,152,18,0,223,0,0,152,18,0,83,138,2,55,100,1,223,0,0,152,18,0,223,0,0,152,18,0,0,221,2,0,151,1,0,221,2,0,151,1,175,46,2,123,50,1,223,0,0,152,18,0,111,44,68,86,36,48
2017-07-10T23:59:59Z,152,220,200,137,220,152,196,134,86,68,0,0,0,0,0,0,3,217,2,151,0,220,0,152,0,0,0,0,0,0,0,0,90,43,87,61,49,66,131,89,0,88,71,0,219,1,0,151,19,0,130,90,0,87,72,0,220,0,0,152,18,0,220,0,0,152,18,0,219,1,0,151,19,0,83,135,2,55,100,1,220,0,0,152,18,0,220,0,0,152,18,0,0,218,2,0,151,1,0,218,2,0,151,1,172,46,2,122,50,1,217,3,0,150,20,0,108,45,67,85,37,48
2017-07-11T23:59:59Z,153,221,201,138,221,153,196,135,93,72,0,0,0,0,0,0,2,219,1,152,0,221,0,153,0,0,0,0,0,0,0,0,90,43,88,61,49,66,132,89,0,89,71,0,220,1,0,152,19,0,130,91,0,87,73,0,220,1,0,152,19,0,220,1,0,152,19,0,220,1,0,152,19,0,83,136,2,55,101,1,221,0,0,153,18,0,221,0,0,153,18,0,0,219,2,0,152,1,0,219,2,0,152,1,173,46,2,123,50,1,218,3,0,151,20,0,108,46,67,85,39,48
2017-07-12T23:59:59Z,151,219,199,136,217,150,196,134,91,71,0,0,0,0,0,0,2,217,1,150,0,217,0,150,0,0,0,0,0,0,0,0,91,40,88,61,48,67,130,89,0,87,71,0,219,0,0,151,19,0,129,90,0,86,72,0,219,0,0,151,19,0,219,0,0,151,19,0,219,0,0,151,19,0,84,133,2,55,99,1,219,0,0,151,19,0,219,0,0,151,19,0,0,217,2,0,150,1,0,217,2,0,150,1,174,43,2,123,49,1,219,0,0,151,19,0,107,44,68,85,36,49
2017-07-13T23:59:59Z,156,226,204,140,226,156,201,138,91,72,0,0,0,0,0,0,4,222,2,154,0,222,0,154,0,0,0,0,0,0,0,0,87,44,95,59,51,71,132,94,0,88,75,0,226,0,0,156,20,0,133,93,0,89,74,0,226,0,0,156,20,0,226,0,0,156,20,0,226,0,0,156,20,0,84,138,4,56,102,2,226,0,0,156,20,0,226,0,0,156,20,0,0,222,4,0,154,2,0,222,4,0,154,2,177,45,4,126,51,2,226,0,0,156,20,0,111,45,70,88,37,50
2017-07-14T23:59:59Z,154,223,201,138,222,153,199,137,91,72,0,0,0,0,0,0,4,219,2,152,0,221,0,153,0,0,0,0,0,0,0,0,89,40,94,60,50,70,130,93,0,87,74,0,222,1,0,153,22,0,129,94,0,86,75,0,222,1,0,153,22,0,222,1,0,153,22,0,222,1,0,153,22,0,83,136,4,55,101,2,223,0,0,154,21,0,223,0,0,154,21,0,0,219,4,0,152,2,0,219,4,0,152,2,177,42,4,126,50,2,222,1,0,153,22,0,107,46,70,85,39,50
2017-07-15T23:59:59Z,155,227,208,141,226,154,205,139,95,74,0,0,0,0,0,0,2,225,1,154,0,225,0,154,0,0,0,0,0,0,0,0,93,43,91,62,50,69,135,92,0,89,73,0,227,0,0,155,20,0,134,93,0,88,74,0,227,0,0,155,20,0,227,0,0,155,20,0,227,0,0,155,20,0,88,137,2,57,101,1,227,0,0,155,20,0,227,0,0,155,20,0,0,225,2,0,154,1,0,225,2,0,154,1,181,44,2,127,50,1,227,0,0,155,20,0,113,46,68,88,37,49
2017-07-16T23:59:59Z,156,227,208,142,227,156,204,139,91,71,0,0,0,0,0,0,2,225,1,155,0,225,1,155,0,0,0,0,0,0,0,0,92,46,89,62,51,68,136,91,0,90,74,0,226,1,0,155,21,0,135,92,0,89,75,0,227,0,0,156,20,0,226,0,0,155,20,0,226,0,0,155,20,0,90,135,2,59,101,1,227,0,0,156,20,0,227,0,0,156,20,0,0,225,2,0,155,1,0,225,2,0,155,1,181,44,2,128,50,1,226,1,0,155,21,0,112,49,66,89,39,48
2017-07-17T23:59:59Z,154,224,208,142,224,154,205,140,94,73,0,0,0,0,0,0,0,224,0,154,0,222,0,153,0,0,0,0,0,0,0,0,91,43,90,61,50,69,131,93,0,87,74,0,224,0,0,154,20,0,131,93,0,87,74,0,224,0,0,154,20,0,223,0,0,153,20,0,224,0,0,154,20,0,88,136,0,58,100,0,224,0,0,154,20,0,224,0,0,154,20,0,0,224,0,0,154,0,0,224,0,0,154,0,181,43,0,128,49,0,223,0,1,153,20,1,107,49,68,85,39,49
2017-07-18T23:59:59Z,154,225,209,142,225,154,206,140,89,70,0,0,0,0,0,0,1,224,1,154,0,225,0,154,0,0,0,0,0,0,0,0,93,43,89,62,50,67,134,91,0,89,72,0,225,0,0,154,20,0,133,92,0,88,73,0,225,0,0,154,20,0,224,0,0,153,20,0,224,0,1,154,20,1,90,135,0,59,99,0,225,0,0,154,20,0,225,0,0,154,20,0,0,225,0,0,154,0,0,225,0,0,154,0,182,43,0,128,49,0,225,0,0,154,20,0,109,49,67,86,39,48
2017-07-19T23:59:59Z,152,220,200,138,219,151,197,136,89,69,0,0,0,0,0,0,4,216,2,150,0,220,0,152,0,0,0,0,0,0,0,0,90,42,88,61,47,67,133,87,0,88,70,0,220,0,0,152,18,0,133,87,0,88,70,0,220,0,0,152,18,0,219,0,0,151,18,0,220,0,0,152,18,0,87,129,4,58,96,2,220,0,0,152,18,0,220,0,0,152,18,0,0,216,4,0,150,2,0,216,4,0,150,2,174,42,4,124,46,2,220,0,0,152,18,0,109,49,62,85,39,45
2017-07-20T23:59:59Z,154,224,204,140,224,154,201,138,86,68,0,0,0,0,0,0,4,220,2,152,0,222,0,153,0,0,0,0,0,0,0,0,93,42,89,62,47,67,137,87,0,90,70,0,224,0,0,154,18,0,137,87,0,90,71,0,224,0,0,154,18,0,223,0,0,153,18,0,224,0,0,154,18,0,92,128,4,61,96,2,224,0,0,154,18,0,224,0,0,154,18,0,0,220,4,0,152,2,0,220,4,0,152,2,178,42,4,126,46,2,222,2,0,153,19,0,112,50,62,86,40,45
2017-07-21T23:59:59Z,151,219,201,138,219,151,198,136,88,69,0,0,0,0,0,0,0,219,0,151,0,219,0,151,0,0,0,0,0,0,0,0,91,44,84,61,47,65,132,87,0,87,69,0,219,0,0,151,17,0,131,88,0,86,70,0,219,0,0,151,17,0,218,0,0,150,17,0,219,0,0,151,17,0,89,130,0,58,96,0,219,0,0,151,17,0,219,0,0,151,17,0,0,219,0,0,151,0,0,219,0,0,151,0,177,42,0,125,45,0,219,0,0,151,17,0,106,51,62,82,41,45
2017-07-22T23:59:59Z,154,222,201,139,222,154,198,137,91,72,0,0,0,0,0,0,3,219,2,153,0,220,0,153,0,0,0,0,0,0,0,0,88,46,88,59,49,67,133,89,0,88,71,0,221,1,0,153,18,0,134,88,0,89,70,0,222,0,0,154,17,0,221,0,0,153,17,0,222,0,0,154,17,0,89,131,2,59,97,1,222,0,0,154,17,0,222,0,0,154,17,0,0,220,2,0,153,1,0,220,2,0,153,1,177,43,2,126,46,1,222,0,0,154,17,0,107,53,62,83,43,45
2017-07-23T23:59:59Z,158,227,205,142,227,158,201,139,93,73,0,0,0,0,0,0,2,225,1,157,0,225,0,157,0,0,0,0,0,0,0,0,92,45,90,62,49,69,135,92,0,90,73,0,226,1,0,157,18,0,134,93,0,89,74,0,226,1,0,157,18,0,225,1,0,156,18,0,226,1,0,157,18,0,90,135,2,59,101,1,227,0,0,158,17,0,227,0,0,158,17,0,0,225,2,0,157,1,0,225,2,0,157,1,182,43,2,129,47,1,226,1,0,157,18,0,108,55,64,84,45,46
2017-07-24T23:59:59Z,158,230,208,142,230,158,205,140,97,74,0,0,0,0,0,0,2,228,1,157,0,228,0,157,0,0,0,0,0,0,0,0,94,45,91,63,48,69,138,92,0,91,73,0,230,0,0,158,18,0,137,93,0,90,74,0,230,0,0,158,18,0,229,0,0,158,18,0,230,0,0,158,18,0,91,137,2,59,102,1,222,8,0,154,25,0,230,0,0,158,18,0,0,228,2,0,157,1,0,228,2,0,157,1,174,54,2,121,56,1,228,2,0,157,19,0,110,53,67,85,44,48
2017-07-25T23:59:59Z,155,223,201,139,222,154,198,137,96,74,0,0,0,0,0,0,4,219,2,154,0,223,0,155,0,0,0,0,0,0,0,0,87,46,90,60,50,68,133,90,0,89,73,0,223,0,0,155,19,0,133,90,0,89,73,0,223,0,0,155,19,0,223,0,0,155,19,0,223,0,0,155,19,0,86,134,3,58,101,1,223,0,0,155,19,0,223,0,0,155,19,0,0,220,3,0,154,1,0,220,3,0,154,1,176,44,3,126,49,1,223,0,0,155,19,0,107,51,65,84,42,47
2017-07-26T23:59:59Z,159,226,203,142,225,158,200,140,90,72,0,0,0,0,0,0,4,222,2,157,0,226,0,159,0,0,0,0,0,0,0,0,90,46,90,61,51,69,136,90,0,91,75,0,224,2,0,157,21,0,135,91,0,90,76,0,224,2,0,157,21,0,224,2,0,157,21,0,224,2,0,157,21,0,87,135,4,58,104,2,226,0,0,159,19,0,226,0,0,159,19,0,0,222,4,0,157,2,0,222,4,0,157,2,176,46,4,127,51,2,225,1,0,158,20,0,109,53,64,86,44,47
2017-07-27T23:59:59Z,158,225,202,141,225,158,199,139,87,69,0,0,0,0,0,0,4,219,2,155,0,221,0,156,0,0,0,0,0,0,0,0,90,44,91,62,49,69,135,90,0,91,74,0,225,0,0,158,19,0,135,90,0,91,75,0,225,0,0,158,19,0,225,0,0,158,19,0,225,0,0,158,19,0,87,134,4,59,103,2,225,0,0,158,19,0,225,0,0,158,19,0,0,221,4,0,156,2,0,221,4,0,156,2,174,45,4,126,50,2,223,0,0,157,19,0,107,52,66,85,42,48
2017-07-28T23:59:59Z,158,223,202,142,223,158,198,139,90,72,0,0,0,0,0,0,3,220,2,157,0,221,0,157,0,0,0,0,0,0,0,0,87,46,90,60,50,70,133,90,0,90,75,0,223,0,0,158,19,0,133,90,0,90,75,0,222,1,0,157,20,0,222,1,0,157,20,0,222,1,0,157,20,0,87,134,2,59,103,1,223,0,0,158,19,0,223,0,0,158,19,0,0,221,2,0,157,1,0,221,2,0,157,1,175,46,2,127,51,1,220,3,0,156,21,0,105,54,64,84,44,47
2017-07-29T23:59:59Z,156,222,202,141,222,156,199,139,91,72,0,0,0,0,0,0,2,220,1,155,0,222,0,156,0,0,0,0,0,0,0,0,89,43,90,61,49,70,132,90,0,90,74,1,222,0,0,156,19,1,132,90,0,90,74,1,222,0,0,156,19,1,222,0,0,156,19,1,222,0,0,156,19,1,88,132,2,60,100,2,222,0,0,156,19,1,222,0,0,156,19,1,0,220,2,0,155,2,0,220,2,0,155,2,178,42,2,129,48,1,222,0,0,156,19,0,106,50,66,85,41,48
2017-07-30T23:59:59Z,157,224,204,142,224,157,201,140,94,75,0,0,0,0,0,0,3,221,2,156,0,220,0,155,0,0,0,0,0,0,0,0,89,45,90,61,50,69,133,91,0,90,75,0,223,1,0,156,20,0,132,92,0,89,76,0,224,0,0,157,19,0,224,0,0,157,19,0,224,0,0,157,19,0,88,134,2,59,102,1,224,0,0,157,19,0,224,0,0,157,19,0,0,222,2,0,156,1,0,222,2,0,156,1,179,43,2,129,49,1,224,0,0,157,19,0,106,52,66,84,43,48
2017-07-31T23:59:59Z,158,227,207,143,227,158,201,140,92,73,0,0,0,0,0,0,2,225,1,157,0,225,0,157,0,0,0,0,0,0,0,0,95,41,91,64,48,70,136,91,0,91,75,0,227,0,0,158,20,0,136,91,0,91,75,0,227,0,0,158,20,0,227,0,0,158,20,0,227,0,0,158,20,0,93,132,2,62,100,1,227,0,0,158,20,0,227,0,0,158,20,0,0,225,2,0,157,1,0,225,2,0,157,1,184,41,2,132,48,1,227,0,0,158,20,0,110,50,67,86,42,49
2017-08-01T23:59:59Z,157,228,206,141,226,157,201,139,93,72,0,0,0,0,0,0,4,224,2,155,0,228,0,157,0,0,0,0,0,0,0,0,94,40,94,63,48,71,136,92,0,91,75,0,228,0,0,157,20,0,135,93,0,90,76,0,228,0,0,157,20,0,228,0,0,157,20,0,228,0,0,157,20,0,92,132,4,61,99,2,228,0,0,157,20,0,228,0,0,157,20,0,0,224,4,0,155,2,0,224,4,0,155,2,184,40,4,131,48,2,228,0,0,157,20,0,110,51,67,86,43,49
2017-08-02T23:59:59Z,159,230,208,143,230,159,204,141,88,70,0,0,0,0,0,0,5,225,3,157,0,226,0,157,0,0,0,0,0,0,0,0,93,44,93,62,50,71,139,91,0,92,75,0,230,0,0,159,20,0,139,91,0,92,75,0,230,0,0,159,20,0,230,0,0,159,20,0,230,0,0,159,20,0,91,135,4,60,102,2,230,0,0,159,20,0,230,0,0,159,20,0,0,226,4,0,157,2,0,226,4,0,157,2,182,44,4,130,50,2,230,0,0,159,20,0,112,53,65,87,43,47
2017-08-03T23:59:59Z,156,224,207,142,224,156,204,140,90,71,0,0,0,0,0,0,2,222,1,155,0,224,0,156,0,0,0,0,0,0,0,0,92,43,89,62,49,68,135,89,0,90,73,0,224,0,0,156,20,0,135,89,0,90,73,0,224,0,0,156,20,0,224,0,0,156,20,0,224,0,0,156,20,0,92,130,2,61,99,1,224,0,0,156,20,0,224,0,0,156,20,0,0,222,2,0,155,1,0,222,2,0,155,1,181,41,2,129,48,1,224,0,0,156,20,0,107,53,64,84,43,46
2017-08-04T23:59:59Z,156,224,209,143,224,156,206,141,93,73,0,0,0,0,0,0,2,222,1,155,0,222,0,155,0,0,0,0,0,0,0,0,95,43,86,65,49,67,134,90,0,90,75,0,224,0,0,156,20,0,134,90,0,90,74,0,224,0,0,156,20,0,224,0,0,156,20,0,224,0,0,156,20,0,93,131,0,62,100,0,224,0,0,156,20,0,224,0,0,156,20,0,0,224,0,0,156,0,0,224,0,0,156,0,183,41,0,130,48,0,224,0,0,156,20,0,107,53,64,85,44,46
2017-08-05T23:59:59Z,155,221,206,142,219,154,202,140,92,73,0,0,0,0,0,0,2,219,1,154,0,221,0,155,0,0,0,0,0,0,0,0,93,42,86,63,49,66,132,89,0,89,73,0,221,0,0,155,20,0,131,90,0,88,74,0,221,0,0,155,20,0,221,0,0,155,20,0,221,0,0,155,20,0,92,129,0,61,99,0,221,0,0,155,20,0,221,0,0,155,20,1,0,221,0,0,155,1,0,221,0,0,155,1,182,39,0,130,47,0,221,0,0,155,20,0,104,54,63,83,44,45
2017-08-06T23:59:58Z,159,229,212,145,229,159,209,143,89,70,0,0,0,0,0,0,4,225,2,157,0,229,0,159,0,0,0,0,0,0,0,0,97,44,88,65,50,67,139,90,0,92,74,0,228,1,0,158,21,0,138,91,0,91,75,0,228,1,0,158,21,0,229,0,0,159,20,0,229,0,0,159,20,0,95,132,2,62,101,1,229,0,0,159,20,0,229,0,0,159,20,0,0,227,2,0,158,1,0,227,2,0,158,1,185,42,2,131,49,1,229,0,0,159,20,0,113,53,63,88,43,45
2017-08-07T23:59:59Z,159,229,211,144,228,158,208,142,89,71,0,0,0,0,0,0,4,225,2,157,0,225,0,157,0,0,0,0,0,0,0,0,95,46,88,64,51,67,140,89,0,93,73,0,229,0,0,159,20,0,139,89,0,92,73,0,228,0,0,158,20,0,228,0,0,158,20,0,228,0,0,158,20,0,96,131,2,63,100,1,229,0,0,159,20,0,229,0,0,159,20,0,0,227,2,0,158,1,0,227,2,0,158,1,185,42,2,131,49,1,229,0,0,159,20,0,113,53,63,89,43,45
2017-08-08T23:59:59Z,159,230,210,143,230,159,207,141,90,71,0,0,0,0,0,0,6,224,3,156,0,230,0,159,0,0,0,0,0,0,0,0,95,47,88,64,51,67,143,87,0,94,72,0,230,0,0,159,20,0,142,87,0,93,72,0,229,0,0,158,20,0,229,0,0,158,20,0,229,0,0,158,20,0,96,130,4,63,99,2,230,0,0,159,20,0,230,0,0,159,20,0,0,226,4,0,157,2,0,226,4,0,157,2,183,43,4,130,49,2,230,0,0,159,20,0,116,53,61,89,43,44
2017-08-09T23:59:59Z,162,234,211,145,232,162,207,142,92,73,0,0,0,0,0,0,6,225,3,159,0,234,0,162,0,0,0,0,0,0,0,0,96,45,90,64,52,69,140,92,0,92,76,0,230,2,0,160,23,0,139,92,0,91,76,0,231,2,0,160,23,0,231,2,0,160,23,0,231,2,0,160,23,0,95,135,4,62,102,2,234,0,0,162,22,0,234,0,0,162,22,0,0,230,4,0,160,2,0,230,4,0,160,2,185,43,4,132,51,2,231,1,0,160,23,0,115,55,62,90,45,45
2017-08-10T23:59:59Z,164,238,217,148,236,164,211,143,94,74,0,0,0,0,0,0,4,231,2,162,0,238,0,164,0,0,0,0,0,0,0,0,94,50,91,62,55,69,142,94,0,93,77,0,234,2,0,161,23,0,141,94,0,92,77,0,235,2,0,161,23,0,235,2,0,161,23,0,235,2,0,161,23,0,96,140,2,62,105,1,237,1,0,163,22,0,238,0,0,164,21,0,0,236,2,0,163,1,0,236,2,0,163,1,187,47,2,131,54,1,232,4,0,161,24,0,114,59,63,89,48,45
2017-08-11T23:59:59Z,160,231,210,144,229,160,207,141,94,74,0,0,0,0,0,0,4,224,2,158,0,228,0,158,0,0,0,0,0,0,0,0,93,46,89,62,52,68,139,90,0,92,74,0,229,0,0,159,21,0,138,90,0,91,74,0,230,0,0,159,21,0,230,0,0,159,21,0,230,0,0,159,21,0,95,134,2,62,101,1,231,0,0,160,21,0,231,0,0,160,21,0,0,229,2,0,159,1,0,229,2,0,159,1,185,42,2,131,50,1,227,1,1,158,22,1,109,57,63,86,48,45
2017-08-12T23:59:59Z,158,229,208,142,226,157,206,140,89,71,0,0,0,0,0,0,4,222,2,156,0,227,0,157,0,0,0,0,0,0,0,0,91,47,88,60,52,68,138,89,0,90,74,0,227,0,0,157,21,0,137,89,0,89,74,0,228,0,0,157,21,0,228,0,0,157,21,0,228,0,0,157,21,0,93,134,2,60,101,1,229,0,0,158,21,0,229,0,0,158,21,0,0,227,2,0,157,1,0,227,2,0,157,1,182,43,2,129,50,1,227,0,0,157,21,0,110,56,61,86,46,44
2017-08-13T23:59:59Z,164,237,213,146,234,163,210,143,92,73,0,0,0,0,0,0,6,228,3,161,0,235,0,163,0,0,0,0,0,0,0,0,95,48,91,63,54,70,143,92,0,94,77,1,234,1,0,162,23,1,143,91,0,94,76,1,235,1,0,162,23,1,235,1,0,162,23,1,235,1,0,162,23,1,95,138,4,62,104,3,237,0,0,164,22,1,237,0,0,164,22,1,0,233,4,0,162,3,0,233,4,0,162,3,184,47,4,130,54,3,234,1,0,162,23,1,115,57,63,91,46,45
2017-08-14T23:59:59Z,165,238,212,146,236,165,209,144,93,75,0,0,0,0,0,0,7,229,4,162,0,238,0,165,0,0,0,0,0,0,0,0,97,49,90,64,55,70,148,88,0,98,75,1,235,1,0,163,22,1,147,88,0,97,75,1,237,0,0,164,21,1,236,1,0,163,22,1,236,1,0,163,22,1,98,136,4,64,104,3,238,0,0,165,21,1,238,0,0,165,21,1,0,234,4,0,163,3,0,234,4,0,163,3,185,47,4,132,54,3,236,0,0,164,21,1,118,56,62,91,46,45
2017-08-15T23:59:59Z,165,239,213,146,236,165,210,144,95,76,0,0,0,0,0,0,7,230,4,162,0,239,0,165,0,0,0,0,0,0,0,0,96,50,90,63,56,71,148,89,0,98,76,1,237,0,0,164,22,1,147,89,0,97,76,1,238,0,0,164,22,1,238,0,0,164,22,1,238,0,0,164,22,1,96,139,4,62,106,3,239,0,0,165,22,1,239,0,0,165,22,1,0,235,4,0,163,3,0,235,4,0,163,3,185,48,4,131,55,3,237,0,0,164,21,1,118,57,62,91,46,45
2017-08-16T23:59:59Z,165,235,213,148,233,164,209,145,92,75,0,0,0,0,0,0,2,231,1,163,0,235,0,165,0,0,0,0,0,0,0,0,99,51,83,66,58,68,147,86,0,99,74,1,232,1,0,163,24,1,144,88,0,96,76,1,233,1,0,163,24,1,233,1,0,163,24,1,233,1,0,163,24,1,98,137,0,64,106,1,235,0,0,165,23,1,235,0,0,165,23,1,0,235,0,0,165,1,0,235,0,0,165,1,184,49,0,132,57,1,232,1,0,163,23,1,116,56,61,92,45,45
2017-08-17T23:59:59Z,164,237,213,146,234,162,210,144,91,74,0,0,0,0,0,0,5,230,3,161,0,237,0,164,0,0,0,0,0,0,0,0,99,51,85,65,56,68,150,85,0,99,72,1,235,0,0,163,21,1,148,86,0,97,73,1,236,0,0,163,21,1,236,0,0,163,21,1,236,0,0,163,21,1,98,137,2,63,105,2,237,0,0,164,21,1,237,0,0,164,21,1,0,235,2,0,163,2,0,235,2,0,163,2,184,49,2,131,55,2,235,0,0,163,21,1,120,54,61,91,43,45